Zanesville, OH

2:55 AM EDT on August 21, 2017 (GMT -0400)
Zanesville Municipal

Weather History for KZZV - May, 2014

Change the Weather History Date:

Thursday, May 22, 2014

  Actual Average Record
Temperature  
Mean Temperature 66 °F 62 °F  
Max Temperature 77 °F 74 °F 95 °F (1941)
Min Temperature 54 °F 51 °F 30 °F (2002)
Degree Days  
Heating Degree Days 0 5  
Month to date heating degree days 140 149  
Since 1 July heating degree days 5964 5506  
Cooling Degree Days 1 2  
Month to date cooling degree days 46 24  
Year to date cooling degree days 51 33  
Growing Degree Days 17 (Base 50)    
Moisture  
Dew Point 57 °F    
Average Humidity 70    
Maximum Humidity 97    
Minimum Humidity 43    
Precipitation  
Precipitation 0.20 in 0.14 in 1.36 in (1983)
Month to date precipitation 3.32 2.91  
Year to date precipitation 14.12 14.18  
Sea Level Pressure  
Sea Level Pressure 29.94 in    
Wind  
Wind Speed 7 mph (West)    
Max Wind Speed 20 mph    
Max Gust Speed 25 mph    
Visibility 8 miles    
Events Rain    
T = Trace of Precipitation, MM = Missing Value Source: NWS Daily Summary

Daily Weather History Graph

Daily Weather History Graph

Search for Another Location

Airport or City:

Trip Planner

Search our weather history database for the weather conditions in past years. The results will help you decide how hot, cold, wet, or windy it might be!

Date:

Astronomy

May. 22, 2014 Rise Set
Actual Time 6:06 AM EDT 8:42 PM EDT
Civil Twilight 5:35 AM EDT 9:13 PM EDT
Nautical Twilight 4:56 AM EDT 9:52 PM EDT
Astronomical Twilight 4:12 AM EDT 10:36 PM EDT
Moon 2:24 AM EDT (5/22) 2:28 PM EDT (5/22)
Length of Visible Light 15h 38m
Length of Day
14h 35m
Last Quarter, 37% of the Moon is Illuminated
May 22
Last Quarter
May 28
New
Jun 5
First Quarter
Jun 13
Full
Jun 19
Last Quarter

Hourly Weather History & Observations

Time (EDT) Temp. Dew Point Humidity Pressure Visibility Wind Dir Wind Speed Gust Speed Precip Events Conditions
12:53 AM 64.0 °F 57.9 °F 80% 29.91 in 10.0 mi West 4.6 mph - N/A   Partly Cloudy
1:53 AM 62.1 °F 57.9 °F 86% 29.92 in 10.0 mi Calm Calm - N/A   Clear
2:53 AM 60.1 °F 57.0 °F 90% 29.88 in 10.0 mi South 3.5 mph - N/A   Clear
3:53 AM 60.1 °F 57.0 °F 90% 29.89 in 10.0 mi SW 3.5 mph - N/A   Clear
4:53 AM 59.0 °F 55.9 °F 90% 29.88 in 10.0 mi SSW 6.9 mph - N/A   Clear
5:53 AM 60.1 °F 57.0 °F 90% 29.90 in 9.0 mi WSW 3.5 mph - N/A   Overcast
6:08 AM 61.0 °F 59.0 °F 93% 29.92 in 1.8 mi West 8.1 mph 16.1 mph 0.10 in Rain Heavy Rain
6:19 AM 61.0 °F 59.0 °F 93% 29.91 in 3.0 mi SSW 6.9 mph - 0.13 in Rain Light Rain
6:53 AM 61.0 °F 59.0 °F 93% 29.91 in 6.0 mi Calm Calm - 0.13 in   Partly Cloudy
7:53 AM 64.0 °F 60.1 °F 87% 29.90 in 10.0 mi Variable 4.6 mph - N/A   Overcast
8:20 AM 64.9 °F 61.0 °F 87% 29.92 in 1.8 mi West 8.1 mph - 0.06 in Rain Rain
8:26 AM 64.9 °F 61.0 °F 87% 29.92 in 3.0 mi West 8.1 mph - 0.07 in Rain Light Rain
8:53 AM 66.0 °F 62.1 °F 87% 29.91 in 10.0 mi WSW 8.1 mph - 0.07 in   Mostly Cloudy
9:03 AM 66.0 °F 62.1 °F 87% 29.92 in - North - - N/A   Unknown
10:40 AM 68.0 °F 63.0 °F 84% 29.94 in 7.0 mi West 10.4 mph - N/A   Overcast
10:53 AM 68.0 °F 63.0 °F 84% 29.93 in 7.0 mi West 11.5 mph - N/A   Overcast
11:53 AM 72.0 °F 62.1 °F 71% 29.93 in 10.0 mi WNW 10.4 mph - N/A   Mostly Cloudy
12:19 PM 73.0 °F 62.1 °F 68% 29.95 in 10.0 mi WNW 9.2 mph 17.3 mph N/A   Mostly Cloudy
12:53 PM 75.0 °F 60.1 °F 60% 29.94 in 10.0 mi WNW 10.4 mph - N/A   Scattered Clouds
1:53 PM 75.9 °F 54.0 °F 46% 29.94 in 10.0 mi NW 11.5 mph 25.3 mph N/A   Partly Cloudy
2:53 PM 75.9 °F 55.0 °F 48% 29.96 in 10.0 mi NW 16.1 mph 21.9 mph N/A   Clear
3:53 PM 75.0 °F 52.0 °F 44% 29.96 in 10.0 mi WNW 12.7 mph - N/A   Clear
5:53 PM 73.9 °F 50.0 °F 43% 29.96 in 10.0 mi NW 11.5 mph - N/A   Clear
6:53 PM 73.0 °F 50.0 °F 44% 29.96 in 10.0 mi WNW 9.2 mph - N/A   Partly Cloudy
7:53 PM 69.1 °F 50.0 °F 51% 29.97 in 10.0 mi NW 6.9 mph - N/A   Partly Cloudy
8:53 PM 66.0 °F 48.9 °F 54% 30.00 in 10.0 mi WNW 5.8 mph - N/A   Clear
9:53 PM 64.9 °F 48.9 °F 56% 30.02 in 10.0 mi NW 5.8 mph - N/A   Clear
10:53 PM 62.1 °F 48.9 °F 62% 30.02 in 10.0 mi Calm Calm - N/A   Clear
11:53 PM 59.0 °F 48.9 °F 69% 30.01 in 10.0 mi Calm Calm - N/A   Clear